Location: Trois-Rivi�res
(46.3500°N, 72.5500°W)
Time: 00:29:18
(UTC-05:00)

N. Korean satellite - Pass Details

Date: 11 October 2017
Orbit: 461 x 513 km, 97.2° (Epoch: 15 December)

Event Time Altitude Azimuth Distance (km) Brightness Sun altitude
Rises 19:02:17 0° 176° (S) 2,557 10.2 -9.7°
Reaches altitude 10° 19:04:23 10° 180° (S) 1,671 9.3 -10.1°
Maximum altitude 19:07:55 56° 259° (W) 578 7.3 -10.7°
Drops below altitude 10° 19:11:25 10° 339° (NNW) 1,656 9.5 -11.3°
Sets 19:13:30 0° 344° (NNW) 2,531 10.4 -11.7°
